Satellite: RS-39 Catalog number: 38051 Epoch time: 14219.82727090 Element set: 792 Inclination: 051.6249 deg RA of node: 321.5625 deg Eccentricity: 0.0007398 Arg of perigee: 359.1213 deg Mean anomaly: 085.4911 deg Mean motion: 15.67499975 rev/day Decay rate: 9.3257e-04 rev/day^2 Epoch rev: 14219 Checksum: 342
Satellite: E-STAR Catalog number: 38079 Epoch time: 14218.46642770 Element set: 922 Inclination: 069.4484 deg RA of node: 218.3648 deg Eccentricity: 0.0347099 Arg of perigee: 281.9296 deg Mean anomaly: 235.8594 deg Mean motion: 15.15558175 rev/day Decay rate: 8.4941e-04 rev/day^2 Epoch rev: 13106 Checksum: 352
Satellite: GOLIAT Catalog number: 38085 Epoch time: 14219.75786375 Element set: 252 Inclination: 069.4526 deg RA of node: 223.2834 deg Eccentricity: 0.0372467 Arg of perigee: 284.1691 deg Mean anomaly: 071.8361 deg Mean motion: 15.09225862 rev/day Decay rate: 7.2638e-04 rev/day^2 Epoch rev: 13103 Checksum: 321
Satellite: HORYU-2 Catalog number: 38340 Epoch time: 14219.38941949 Element set: 930 Inclination: 098.2666 deg RA of node: 177.4682 deg Eccentricity: 0.0013357 Arg of perigee: 018.1877 deg Mean anomaly: 341.9808 deg Mean motion: 14.72660949 rev/day Decay rate: 1.988e-05 rev/day^2 Epoch rev: 11933 Checksum: 352
Satellite: RS-40 Catalog number: 38735 Epoch time: 14219.73612567 Element set: 642 Inclination: 082.4750 deg RA of node: 255.3998 deg Eccentricity: 0.0017765 Arg of perigee: 139.1217 deg Mean anomaly: 221.1199 deg Mean motion: 12.42561314 rev/day Decay rate: 2.4e-07 rev/day^2 Epoch rev: 9198 Checksum: 311
Satellite: PROITERES Catalog number: 38756 Epoch time: 14219.81558589 Element set: 87 Inclination: 098.2284 deg RA of node: 308.9559 deg Eccentricity: 0.0012107 Arg of perigee: 213.2259 deg Mean anomaly: 146.8191 deg Mean motion: 14.75031056 rev/day Decay rate: 4.63e-06 rev/day^2 Epoch rev: 10279 Checksum: 320
Satellite: BEESAT-3 Catalog number: 39134 Epoch time: 14219.53259899 Element set: 666 Inclination: 064.8634 deg RA of node: 335.9714 deg Eccentricity: 0.0031312 Arg of perigee: 298.7821 deg Mean anomaly: 061.0157 deg Mean motion: 15.05737634 rev/day Decay rate: 6.956e-05 rev/day^2 Epoch rev: 7139 Checksum: 334
Satellite: BEESAT-2 Catalog number: 39136 Epoch time: 14219.81770505 Element set: 649 Inclination: 064.8647 deg RA of node: 335.7084 deg Eccentricity: 0.0031502 Arg of perigee: 299.0952 deg Mean anomaly: 060.6957 deg Mean motion: 15.05070851 rev/day Decay rate: 5.999e-05 rev/day^2 Epoch rev: 7142 Checksum: 325
Satellite: LO-75 Catalog number: 39382 Epoch time: 14219.17848864 Element set: 354 Inclination: 040.4911 deg RA of node: 145.8548 deg Eccentricity: 0.0022720 Arg of perigee: 251.3354 deg Mean anomaly: 108.4819 deg Mean motion: 15.51175354 rev/day Decay rate: 1.12430e-03 rev/day^2 Epoch rev: 3995 Checksum: 314
Satellite: ZACUBE-1 Catalog number: 39417 Epoch time: 14219.14403616 Element set: 369 Inclination: 097.7717 deg RA of node: 288.0095 deg Eccentricity: 0.0063608 Arg of perigee: 077.9939 deg Mean anomaly: 282.8383 deg Mean motion: 14.78237062 rev/day Decay rate: 1.752e-05 rev/day^2 Epoch rev: 3822 Checksum: 335
Satellite: TRITON-1 Catalog number: 39427 Epoch time: 14218.98746064 Element set: 222 Inclination: 097.7596 deg RA of node: 282.6454 deg Eccentricity: 0.0119267 Arg of perigee: 088.6968 deg Mean anomaly: 272.7927 deg Mean motion: 14.65504645 rev/day Decay rate: 1.673e-05 rev/day^2 Epoch rev: 3783 Checksum: 360
Satellite: DELFIN3XT Catalog number: 39428 Epoch time: 14219.25579011 Element set: 225 Inclination: 097.7577 deg RA of node: 281.9763 deg Eccentricity: 0.0129819 Arg of perigee: 090.5028 deg Mean anomaly: 271.1101 deg Mean motion: 14.63477098 rev/day Decay rate: 2.918e-05 rev/day^2 Epoch rev: 3780 Checksum: 325
Satellite: GOMX-1 Catalog number: 39430 Epoch time: 14219.74978454 Element set: 709 Inclination: 097.7512 deg RA of node: 279.9172 deg Eccentricity: 0.0157587 Arg of perigee: 095.7367 deg Mean anomaly: 266.1800 deg Mean motion: 14.56939822 rev/day Decay rate: 1.825e-05 rev/day^2 Epoch rev: 3772 Checksum: 355
Satellite: MO-76 Catalog number: 39436 Epoch time: 14218.98510115 Element set: 290 Inclination: 097.7752 deg RA of node: 291.8409 deg Eccentricity: 0.0027171 Arg of perigee: 082.6447 deg Mean anomaly: 277.7697 deg Mean motion: 14.91072603 rev/day Decay rate: 1.4795e-04 rev/day^2 Epoch rev: 3844 Checksum: 345
Satellite: LO-74 Catalog number: 39440 Epoch time: 14219.34742195 Element set: 222 Inclination: 097.7680 deg RA of node: 286.1393 deg Eccentricity: 0.0085341 Arg of perigee: 080.4639 deg Mean anomaly: 280.6284 deg Mean motion: 14.73178345 rev/day Decay rate: 1.850e-05 rev/day^2 Epoch rev: 3811 Checksum: 318
Satellite: PUCPSAT-1 Catalog number: 39442 Epoch time: 14219.26963673 Element set: 220 Inclination: 097.7771 deg RA of node: 291.3365 deg Eccentricity: 0.0036002 Arg of perigee: 077.8708 deg Mean anomaly: 282.6603 deg Mean motion: 14.86275780 rev/day Decay rate: 2.833e-05 rev/day^2 Epoch rev: 3721 Checksum: 314
Satellite: SHINAISAT Catalog number: 39572 Epoch time: 14219.24479619 Element set: 219 Inclination: 064.9978 deg RA of node: 225.1614 deg Eccentricity: 0.0019791 Arg of perigee: 286.3095 deg Mean anomaly: 073.5883 deg Mean motion: 15.73759091 rev/day Decay rate: 6.4966e-04 rev/day^2 Epoch rev: 2513 Checksum: 351
Satellite: OPUSAT Catalog number: 39575 Epoch time: 14205.03098383 Element set: 295 Inclination: 064.9843 deg RA of node: 263.3854 deg Eccentricity: 0.0017888 Arg of perigee: 326.7083 deg Mean anomaly: 036.3105 deg Mean motion: 16.47207532 rev/day Decay rate: 1.0394079e-01 rev/day^2 Epoch rev: 2311 Checksum: 316
Satellite: TEIKYOSAT Catalog number: 39576 Epoch time: 14219.51591977 Element set: 229 Inclination: 065.0062 deg RA of node: 221.8073 deg Eccentricity: 0.0020603 Arg of perigee: 296.3393 deg Mean anomaly: 063.5613 deg Mean motion: 15.79144330 rev/day Decay rate: 9.6239e-04 rev/day^2 Epoch rev: 2522 Checksum: 300
Satellite: CO-77 Catalog number: 39577 Epoch time: 14219.89924775 Element set: 267 Inclination: 065.0007 deg RA of node: 215.1920 deg Eccentricity: 0.0018544 Arg of perigee: 291.3577 deg Mean anomaly: 068.5565 deg Mean motion: 15.96647621 rev/day Decay rate: 3.16867e-03 rev/day^2 Epoch rev: 2538 Checksum: 360
Satellite: STARS-II Catalog number: 39579 Epoch time: 14116.06110564 Element set: 132 Inclination: 064.9886 deg RA of node: 219.0071 deg Eccentricity: 0.0013010 Arg of perigee: 293.8065 deg Mean anomaly: 069.6132 deg Mean motion: 16.44611049 rev/day Decay rate: 2.0186783e-01 rev/day^2 Epoch rev: 902 Checksum: 288
Satellite: SPROUT Catalog number: 39770 Epoch time: 14219.08777418 Element set: 91 Inclination: 097.8728 deg RA of node: 315.4630 deg Eccentricity: 0.0011177 Arg of perigee: 140.3356 deg Mean anomaly: 219.8721 deg Mean motion: 14.82683328 rev/day Decay rate: 1.070e-05 rev/day^2 Epoch rev: 1108 Checksum: 298
Satellite: POPSAT-HIP1 Catalog number: 40028 Epoch time: 14219.82823794 Element set: 144 Inclination: 097.9803 deg RA of node: 114.5686 deg Eccentricity: 0.0016107 Arg of perigee: 122.1456 deg Mean anomaly: 238.1354 deg Mean motion: 14.85152055 rev/day Decay rate: 1.956e-05 rev/day^2 Epoch rev: 724 Checksum: 292
Satellite: EO-80 Catalog number: 40032 Epoch time: 14219.76840457 Element set: 138 Inclination: 097.9771 deg RA of node: 114.4673 deg Eccentricity: 0.0013393 Arg of perigee: 117.7350 deg Mean anomaly: 242.5257 deg Mean motion: 14.84923626 rev/day Decay rate: 1.984e-05 rev/day^2 Epoch rev: 724 Checksum: 312
Satellite: VELOX-1 Catalog number: 40057 Epoch time: 14219.78146823 Element set: 130 Inclination: 098.2498 deg RA of node: 287.6105 deg Eccentricity: 0.0012519 Arg of perigee: 152.1564 deg Mean anomaly: 208.0308 deg Mean motion: 14.74031169 rev/day Decay rate: 1.993e-05 rev/day^2 Epoch rev: 568 Checksum: 295
Satellite: DAURIA DX 1 Catalog number: 40071 Epoch time: 14219.75682357 Element set: 101 Inclination: 098.3997 deg RA of node: 272.7226 deg Eccentricity: 0.0009444 Arg of perigee: 155.9040 deg Mean anomaly: 204.2572 deg Mean motion: 14.79530644 rev/day Decay rate: 1.024e-05 rev/day^2 Epoch rev: 443 Checksum: 284
Satellite: UKUBE-1 Catalog number: 40074 Epoch time: 14219.80689704 Element set: 103 Inclination: 098.4011 deg RA of node: 272.8208 deg Eccentricity: 0.0005757 Arg of perigee: 157.0536 deg Mean anomaly: 203.0903 deg Mean motion: 14.80416407 rev/day Decay rate: 2.059e-05 rev/day^2 Epoch rev: 444 Checksum: 271
/EX